Time,TemperatureF,DewpointF,PressureIn,WindDirection,WindDirectionDegrees,WindSpeedMPH,WindSpeedGustMPH,Humidity,HourlyPrecipIn,Conditions,Clouds,dailyrainin,SoftwareType,DateUTC
2013-04-05 00:00:00,36.1,33.2,30.13,SE,135,0.0,-999.0,89,-99.99,,,0.00,Acu-Link.com,2013-04-05 04:00:00,
2013-04-05 00:31:00,36.1,34.0,30.11,NNW,337,0.0,-999.0,92,-99.99,,,0.03,Acu-Link.com,2013-04-05 04:31:00,
2013-04-05 00:46:00,36.1,34.0,30.11,SE,135,0.0,-999.0,92,-99.99,,,0.06,Acu-Link.com,2013-04-05 04:46:00,
2013-04-05 01:01:00,36.1,34.0,30.10,ESE,112,0.0,-999.0,92,-99.99,,,0.09,Acu-Link.com,2013-04-05 05:01:00,
2013-04-05 01:17:00,36.1,34.3,30.09,ESE,112,0.0,-999.0,93,-99.99,,,0.11,Acu-Link.com,2013-04-05 05:17:00,
2013-04-05 01:32:00,36.1,34.5,30.07,ENE,67,0.0,-999.0,94,-99.99,,,0.13,Acu-Link.com,2013-04-05 05:32:00,
2013-04-05 01:47:00,36.3,34.7,30.06,NNW,337,0.0,-999.0,94,-99.99,,,0.16,Acu-Link.com,2013-04-05 05:47:00,
2013-04-05 02:02:00,36.3,34.7,30.04,NNE,22,0.0,-999.0,94,-99.99,,,0.18,Acu-Link.com,2013-04-05 06:02:00,
2013-04-05 02:17:00,36.3,35.0,30.02,NE,45,0.0,-999.0,95,-99.99,,,0.21,Acu-Link.com,2013-04-05 06:17:00,
2013-04-05 02:33:00,36.3,35.0,30.01,North,0,0.0,-999.0,95,-99.99,,,0.22,Acu-Link.com,2013-04-05 06:33:00,
2013-04-05 02:48:00,36.5,35.5,29.98,NNE,22,0.0,-999.0,96,-99.99,,,0.27,Acu-Link.com,2013-04-05 06:48:00,
2013-04-05 03:03:00,36.5,35.5,29.97,NNE,22,0.0,-999.0,96,-99.99,,,0.32,Acu-Link.com,2013-04-05 07:03:00,
2013-04-05 03:18:00,36.5,35.5,29.95,NW,315,0.0,-999.0,96,-99.99,,,0.38,Acu-Link.com,2013-04-05 07:18:00,
2013-04-05 03:49:00,37.0,36.2,29.95,West,270,2.2,-999.0,97,-99.99,,,0.47,Acu-Link.com,2013-04-05 07:49:00,
2013-04-05 04:04:00,37.0,36.2,29.95,WNW,292,3.2,-999.0,97,-99.99,,,0.58,Acu-Link.com,2013-04-05 08:04:00,
2013-04-05 04:20:00,37.2,36.4,29.95,NW,315,0.0,-999.0,97,-99.99,,,0.60,Acu-Link.com,2013-04-05 08:20:00,
2013-04-05 04:35:00,37.4,36.6,29.95,ESE,112,2.2,-999.0,97,-99.99,,,0.64,Acu-Link.com,2013-04-05 08:35:00,
2013-04-05 04:51:00,37.4,36.9,29.93,WNW,292,1.7,-999.0,98,-99.99,,,0.71,Acu-Link.com,2013-04-05 08:51:00,
2013-04-05 05:36:00,38.3,37.8,29.91,West,270,5.8,-999.0,98,-99.99,,,0.80,Acu-Link.com,2013-04-05 09:36:00,
2013-04-05 05:51:00,38.3,37.8,29.90,WNW,292,4.7,-999.0,98,-99.99,,,0.83,Acu-Link.com,2013-04-05 09:51:00,
2013-04-05 06:06:00,38.5,38.0,29.88,SE,135,2.2,-999.0,98,-99.99,,,0.85,Acu-Link.com,2013-04-05 10:06:00,
2013-04-05 06:22:00,38.5,38.0,29.89,NE,45,6.8,-999.0,98,-99.99,,,0.90,Acu-Link.com,2013-04-05 10:22:00,
2013-04-05 06:37:00,38.8,38.3,29.90,East,90,1.1,-999.0,98,-99.99,,,0.92,Acu-Link.com,2013-04-05 10:37:00,
2013-04-05 07:08:00,38.8,38.3,29.89,West,270,0.0,-999.0,98,-99.99,,,0.97,Acu-Link.com,2013-04-05 11:08:00,
2013-04-05 07:23:00,39.0,38.5,29.88,North,0,2.2,-999.0,98,-99.99,,,0.99,Acu-Link.com,2013-04-05 11:23:00,
2013-04-05 07:38:00,39.2,38.7,29.88,NNW,337,2.2,-999.0,98,-99.99,,,0.99,Acu-Link.com,2013-04-05 11:38:00,
2013-04-05 07:53:00,39.4,38.9,29.88,ESE,112,5.3,-999.0,98,-99.99,,,1.01,Acu-Link.com,2013-04-05 11:53:00,
2013-04-05 08:08:00,39.7,39.2,29.87,NNW,337,2.7,-999.0,98,-99.99,,,1.02,Acu-Link.com,2013-04-05 12:08:00,
2013-04-05 09:09:00,43.2,41.3,29.87,WNW,292,3.7,-999.0,93,-99.99,,,1.03,Acu-Link.com,2013-04-05 13:09:00,
2013-04-05 09:24:00,43.5,41.6,29.87,SW,225,4.7,-999.0,93,-99.99,,,1.03,Acu-Link.com,2013-04-05 13:24:00,
2013-04-05 09:40:00,45.5,42.4,29.87,North,0,3.2,-999.0,89,-99.99,,,1.03,Acu-Link.com,2013-04-05 13:40:00,
2013-04-05 09:55:00,44.6,41.9,29.88,North,0,1.7,-999.0,90,-99.99,,,1.03,Acu-Link.com,2013-04-05 13:55:00,
2013-04-05 10:10:00,45.5,41.9,29.87,NNW,337,0.0,-999.0,87,-99.99,,,1.03,Acu-Link.com,2013-04-05 14:10:00,
2013-04-05 10:25:00,46.4,42.4,29.88,ENE,67,0.0,-999.0,86,-99.99,,,1.03,Acu-Link.com,2013-04-05 14:25:00,
2013-04-05 10:41:00,45.9,41.6,29.87,East,90,3.2,-999.0,85,-99.99,,,1.03,Acu-Link.com,2013-04-05 14:41:00,
2013-04-05 10:56:00,46.4,43.0,29.86,SSW,202,3.2,-999.0,88,-99.99,,,1.03,Acu-Link.com,2013-04-05 14:56:00,
2013-04-05 11:26:00,48.0,42.5,29.85,NW,315,3.2,-999.0,81,-99.99,,,1.03,Acu-Link.com,2013-04-05 15:26:00,
2013-04-05 11:57:00,52.2,44.5,29.86,NNW,337,3.7,-999.0,75,-99.99,,,1.03,Acu-Link.com,2013-04-05 15:57:00,
2013-04-05 12:12:00,53.1,42.8,29.84,NW,315,2.2,-999.0,68,-99.99,,,1.03,Acu-Link.com,2013-04-05 16:12:00,
2013-04-05 12:27:00,53.8,41.1,29.84,West,270,3.2,-999.0,62,-99.99,,,1.03,Acu-Link.com,2013-04-05 16:27:00,
2013-04-05 12:42:00,56.1,42.0,29.83,NE,45,3.2,-999.0,59,-99.99,,,1.03,Acu-Link.com,2013-04-05 16:42:00,
2013-04-05 12:57:00,57.2,40.2,29.82,West,270,5.8,-999.0,53,-99.99,,,1.03,Acu-Link.com,2013-04-05 16:57:00,
2013-04-05 13:13:00,58.1,41.1,29.81,North,0,3.2,-999.0,53,-99.99,,,1.03,Acu-Link.com,2013-04-05 17:13:00,
2013-04-05 13:28:00,58.5,38.9,29.82,NW,315,2.2,-999.0,48,-99.99,,,1.03,Acu-Link.com,2013-04-05 17:28:00,
2013-04-05 13:43:00,58.5,36.1,29.81,North,0,2.2,-999.0,43,-99.99,,,1.03,Acu-Link.com,2013-04-05 17:43:00,
2013-04-05 13:58:00,59.4,36.3,29.80,North,0,4.2,-999.0,42,-99.99,,,1.03,Acu-Link.com,2013-04-05 17:58:00,
2013-04-05 14:14:00,59.2,36.1,29.81,NNW,337,2.2,-999.0,42,-99.99,,,1.03,Acu-Link.com,2013-04-05 18:14:00,
2013-04-05 14:29:00,59.0,37.1,29.80,NW,315,2.7,-999.0,44,-99.99,,,1.03,Acu-Link.com,2013-04-05 18:29:00,
2013-04-05 14:44:00,59.0,34.7,29.79,NNW,337,4.2,-999.0,40,-99.99,,,1.03,Acu-Link.com,2013-04-05 18:44:00,
2013-04-05 15:00:00,59.4,36.3,29.79,SSW,202,2.7,-999.0,42,-99.99,,,1.03,Acu-Link.com,2013-04-05 19:00:00,
2013-04-05 15:15:00,59.4,35.7,29.79,SSW,202,3.7,-999.0,41,-99.99,,,1.03,Acu-Link.com,2013-04-05 19:15:00,
2013-04-05 15:30:00,61.3,35.5,29.78,SW,225,3.7,-999.0,38,-99.99,,,1.03,Acu-Link.com,2013-04-05 19:30:00,
2013-04-05 15:45:00,60.8,32.3,29.78,WSW,247,3.7,-999.0,34,-99.99,,,1.03,Acu-Link.com,2013-04-05 19:45:00,
2013-04-05 16:01:00,62.6,32.3,29.78,SSE,157,4.7,-999.0,32,-99.99,,,1.03,Acu-Link.com,2013-04-05 20:01:00,
2013-04-05 17:01:00,61.7,28.3,29.79,South,180,3.7,-999.0,28,-99.99,,,1.03,Acu-Link.com,2013-04-05 21:01:00,
2013-04-05 17:32:00,62.1,29.5,29.78,ESE,112,1.7,-999.0,29,-99.99,,,1.03,Acu-Link.com,2013-04-05 21:32:00,
2013-04-05 17:47:00,61.5,29.0,29.80,ESE,112,2.2,-999.0,29,-99.99,,,1.03,Acu-Link.com,2013-04-05 21:47:00,
2013-04-05 18:02:00,62.6,29.9,29.80,South,180,0.0,-999.0,29,-99.99,,,1.03,Acu-Link.com,2013-04-05 22:02:00,
2013-04-05 18:17:00,65.3,28.6,29.81,SW,225,4.2,-999.0,25,-99.99,,,1.03,Acu-Link.com,2013-04-05 22:17:00,
2013-04-05 18:33:00,65.1,30.3,29.82,SSE,157,0.0,-999.0,27,-99.99,,,1.03,Acu-Link.com,2013-04-05 22:33:00,
2013-04-05 18:48:00,63.1,32.8,29.82,West,270,0.0,-999.0,32,-99.99,,,1.03,Acu-Link.com,2013-04-05 22:48:00,
2013-04-05 19:03:00,59.7,34.1,29.83,West,270,0.0,-999.0,38,-99.99,,,1.03,Acu-Link.com,2013-04-05 23:03:00,
2013-04-05 19:18:00,57.2,34.3,29.83,West,270,0.0,-999.0,42,-99.99,,,1.03,Acu-Link.com,2013-04-05 23:18:00,
2013-04-05 19:49:00,50.7,34.7,29.85,West,270,0.0,-999.0,54,-99.99,,,1.03,Acu-Link.com,2013-04-05 23:49:00,
2013-04-05 20:04:00,48.7,33.7,29.85,West,270,0.0,-999.0,56,-99.99,,,1.03,Acu-Link.com,2013-04-06 00:04:00,
2013-04-05 20:19:00,47.1,34.8,29.86,West,270,0.0,-999.0,62,-99.99,,,1.03,Acu-Link.com,2013-04-06 00:19:00,
2013-04-05 20:34:00,45.5,35.9,29.87,West,270,0.0,-999.0,69,-99.99,,,1.03,Acu-Link.com,2013-04-06 00:34:00,
2013-04-05 20:50:00,44.2,35.0,29.89,West,270,0.0,-999.0,70,-99.99,,,1.03,Acu-Link.com,2013-04-06 00:50:00,
2013-04-05 21:05:00,43.0,34.6,29.90,West,270,0.0,-999.0,72,-99.99,,,1.03,Acu-Link.com,2013-04-06 01:05:00,
2013-04-05 21:20:00,41.9,35.2,29.91,WSW,247,0.0,-999.0,77,-99.99,,,1.03,Acu-Link.com,2013-04-06 01:20:00,
2013-04-05 21:35:00,42.4,33.3,29.92,SSW,202,0.0,-999.0,70,-99.99,,,1.03,Acu-Link.com,2013-04-06 01:35:00,
2013-04-05 21:50:00,41.9,32.8,29.93,West,270,0.0,-999.0,70,-99.99,,,1.03,Acu-Link.com,2013-04-06 01:50:00,
2013-04-05 22:06:00,41.9,31.8,29.94,West,270,0.0,-999.0,67,-99.99,,,1.03,Acu-Link.com,2013-04-06 02:06:00,
2013-04-05 22:51:00,40.1,32.2,29.95,WNW,292,0.0,-999.0,73,-99.99,,,1.03,Acu-Link.com,2013-04-06 02:51:00,
2013-04-05 23:22:00,38.5,32.9,29.97,ESE,112,0.0,-999.0,80,-99.99,,,1.03,Acu-Link.com,2013-04-06 03:22:00,
2013-04-05 23:37:00,37.6,31.4,29.98,West,270,0.0,-999.0,78,-99.99,,,1.03,Acu-Link.com,2013-04-06 03:37:00,
2013-04-05 23:52:00,36.7,30.8,29.98,NNE,22,0.0,-999.0,79,-99.99,,,1.03,Acu-Link.com,2013-04-06 03:52:00,